Location: Gouy
(50.0008°N, 3.2556°E)
Time: 13:09:33
(UTC+00:00)

UNISAT 2 - Visible Passes

Search period start: 03 October 2024 00:00
Search period end: 13 October 2024 00:00
Orbit: 608 x 640 km, 64.6° (Epoch: 02 October)

Date Brightness Start Highest point End Pass type
(mag) Time Alt. Az. Time Alt. Az. Time Alt. Az.
03 Oct 8.3 18:57:43 10° NW 19:01:58 40° WSW 19:06:14 10° S visible
04 Oct 9.4 19:17:11 10° WNW 19:20:37 21° WSW 19:24:03 10° SSW visible
05 Oct 7.5 17:55:22 10° NW 17:59:53 69° SW 18:04:26 10° SSE visible
05 Oct 10.1 19:38:01 10° W 19:39:06 11° WSW 19:40:10 10° WSW visible
06 Oct 8.7 18:14:28 10° NW 18:18:39 36° WSW 18:22:50 10° S visible
07 Oct 9.8 18:33:59 10° WNW 18:37:14 19° WSW 18:40:29 10° SSW visible
09 Oct 9.1 17:31:07 10° NW 17:35:12 33° WSW 17:39:17 10° S visible
10 Oct 10.0 17:50:41 10° WNW 17:53:43 18° WSW 17:56:46 10° SSW visible
